GCOM-W1 (SHIZUKU)

Last updated on Mon Sep 21 2026 00:03:33 GMT+0000 (Coordinated Universal Time)

1 38337U 12025A 26263.42409126 .00000269 00000+0 69692-4 0 9993 2 38337 98.2076 202.5546 0001535 84.7968 26.9490 14.57137433762900
UTC large
Height (km)
Speed (km/s)
/
Latitude / Longitude
Inclination (degrees)
Orbital Period (minutes)
Azimuth
Elevation
Range (km)
Doppler Factor

Next 0 passes for location: London (51.5072 / 0.1276)

No passes found over London.
GCOM-W1 (SHIZUKU)